,,PressureMeas_1m,,PRMeasQMR101_1,,RHStat155_1m_1,,SRMeasQMS101R_1m,,TAStat155_1m_1,,GenWind_1,,GenWind_1,
2018-05-09, 00:00:07,VALID,918.057,VALID,0.0,VALID,97.258,VALID,-0.018,VALID,22.008,INVALID,360.0,VALID,0.0,
2018-05-09, 00:01:07,VALID,918.035,VALID,0.0,VALID,97.245,VALID,-0.008,VALID,21.977,INVALID,360.0,VALID,0.0,
2018-05-09, 00:02:07,VALID,918.022,VALID,0.0,VALID,97.345,VALID,-0.012,VALID,21.958,INVALID,360.0,VALID,0.0,
2018-05-09, 00:03:07,VALID,917.993,VALID,0.0,VALID,97.405,VALID,-0.013,VALID,21.944,INVALID,360.0,VALID,0.0,
2018-05-09, 00:04:07,VALID,917.973,VALID,0.0,VALID,97.514,VALID,-0.022,VALID,21.93,INVALID,360.0,VALID,0.0,
2018-05-09, 00:05:07,VALID,917.985,VALID,0.0,VALID,97.596,VALID,-0.019,VALID,21.917,INVALID,360.0,VALID,0.0,
2018-05-09, 00:06:07,VALID,917.978,VALID,0.0,VALID,97.689,VALID,-0.012,VALID,21.905,INVALID,360.0,VALID,0.0,
2018-05-09, 00:07:07,VALID,917.975,VALID,0.0,VALID,97.808,VALID,-0.019,VALID,21.911,INVALID,360.0,VALID,0.0,
2018-05-09, 00:08:07,VALID,917.957,VALID,0.0,VALID,97.92,VALID,-0.025,VALID,21.917,INVALID,360.0,VALID,0.0,
2018-05-09, 00:09:07,VALID,917.955,VALID,0.0,VALID,97.955,VALID,-0.013,VALID,21.914,INVALID,360.0,VALID,0.0,
2018-05-09, 00:10:07,VALID,917.948,VALID,0.0,VALID,97.985,VALID,-0.007,VALID,21.91,INVALID,360.0,VALID,0.0,
2018-05-09, 00:11:07,VALID,917.954,VALID,0.0,VALID,97.985,VALID,0.001,VALID,21.912,INVALID,360.0,VALID,0.0,
2018-05-09, 00:12:07,VALID,917.949,VALID,0.0,VALID,98.015,VALID,-0.009,VALID,21.924,INVALID,360.0,VALID,0.0,
2018-05-09, 00:13:07,VALID,917.932,VALID,0.0,VALID,97.965,VALID,0.003,VALID,21.917,VALID,63.0,VALID,0.0,
2018-05-09, 00:14:07,VALID,917.91,VALID,0.0,VALID,97.926,VALID,0.01,VALID,21.907,VALID,63.0,VALID,0.0,
2018-05-09, 00:15:07,VALID,917.877,VALID,0.0,VALID,97.953,VALID,-0.014,VALID,21.914,INVALID,360.0,VALID,0.0,
2018-05-09, 00:16:07,VALID,917.845,VALID,0.0,VALID,97.816,VALID,-0.011,VALID,21.879,INVALID,360.0,VALID,0.0,
2018-05-09, 00:17:07,VALID,917.821,VALID,0.0,VALID,97.683,VALID,-0.006,VALID,21.84,INVALID,360.0,VALID,0.0,
2018-05-09, 00:18:07,VALID,917.806,VALID,0.0,VALID,97.547,VALID,-0.01,VALID,21.791,INVALID,360.0,VALID,0.0,
2018-05-09, 00:19:07,VALID,917.796,VALID,0.0,VALID,97.451,VALID,-0.012,VALID,21.759,INVALID,360.0,VALID,0.0,
2018-05-09, 00:20:07,VALID,917.794,VALID,0.0,VALID,97.376,VALID,-0.014,VALID,21.736,INVALID,360.0,VALID,0.0,
2018-05-09, 00:21:07,VALID,917.802,VALID,0.0,VALID,97.443,VALID,-0.0,VALID,21.721,INVALID,360.0,VALID,0.0,
2018-05-09, 00:22:07,VALID,917.798,VALID,0.0,VALID,97.469,VALID,0.002,VALID,21.7,VALID,83.0,VALID,0.0,
2018-05-09, 00:23:07,VALID,917.804,VALID,0.0,VALID,97.6,VALID,0.003,VALID,21.708,VALID,80.0,VALID,0.0,
2018-05-09, 00:24:07,VALID,917.806,VALID,0.0,VALID,97.535,VALID,-0.017,VALID,21.705,VALID,79.0,VALID,0.0,
2018-05-09, 00:25:07,VALID,917.83,VALID,0.0,VALID,97.468,VALID,-0.007,VALID,21.698,VALID,72.0,VALID,0.0,
2018-05-09, 00:26:07,VALID,917.828,VALID,0.0,VALID,97.396,VALID,-0.001,VALID,21.685,INVALID,360.0,VALID,0.0,
2018-05-09, 00:27:07,VALID,917.827,VALID,0.0,VALID,97.335,VALID,-0.015,VALID,21.669,INVALID,360.0,VALID,0.0,
2018-05-09, 00:28:07,VALID,917.821,VALID,0.0,VALID,97.394,VALID,-0.013,VALID,21.657,INVALID,360.0,VALID,0.0,
2018-05-09, 00:29:07,VALID,917.82,VALID,0.0,VALID,97.511,VALID,-0.02,VALID,21.668,INVALID,360.0,VALID,0.0,
2018-05-09, 00:30:07,VALID,917.805,VALID,0.0,VALID,97.564,VALID,-0.047,VALID,21.675,INVALID,360.0,VALID,0.0,
2018-05-09, 00:31:07,VALID,917.773,VALID,0.0,VALID,97.593,VALID,-0.029,VALID,21.679,INVALID,360.0,VALID,0.0,
2018-05-09, 00:32:07,VALID,917.768,VALID,0.0,VALID,97.546,VALID,-0.017,VALID,21.662,INVALID,360.0,VALID,0.0,
2018-05-09, 00:33:07,VALID,917.759,VALID,0.0,VALID,97.522,VALID,-0.007,VALID,21.636,INVALID,360.0,VALID,0.0,
2018-05-09, 00:34:07,VALID,917.741,VALID,0.0,VALID,97.542,VALID,-0.028,VALID,21.624,VALID,111.0,VALID,0.0,
2018-05-09, 00:35:07,VALID,917.741,VALID,0.0,VALID,97.651,VALID,-0.022,VALID,21.609,VALID,119.0,VALID,0.0,
2018-05-09, 00:36:07,VALID,917.727,VALID,0.0,VALID,97.743,VALID,-0.015,VALID,21.581,VALID,125.0,VALID,0.0,
2018-05-09, 00:37:07,VALID,917.707,VALID,0.0,VALID,97.897,VALID,-0.037,VALID,21.553,VALID,118.0,VALID,0.0,
2018-05-09, 00:38:07,VALID,917.682,VALID,0.0,VALID,98.009,VALID,-0.022,VALID,21.528,VALID,107.0,VALID,0.0,
2018-05-09, 00:39:07,VALID,917.664,VALID,0.0,VALID,98.054,VALID,-0.03,VALID,21.475,VALID,105.0,VALID,0.0,
2018-05-09, 00:40:07,VALID,917.645,VALID,0.0,VALID,98.111,VALID,-0.032,VALID,21.452,VALID,102.0,VALID,0.0,
2018-05-09, 00:41:07,VALID,917.625,VALID,0.0,VALID,98.244,VALID,-0.032,VALID,21.456,VALID,94.0,VALID,0.0,
2018-05-09, 00:42:07,VALID,917.589,VALID,0.0,VALID,98.314,VALID,-0.03,VALID,21.464,VALID,101.0,VALID,0.0,
2018-05-09, 00:43:07,VALID,917.55,VALID,0.0,VALID,98.371,VALID,-0.033,VALID,21.45,INVALID,360.0,VALID,0.0,
2018-05-09, 00:44:07,VALID,917.506,VALID,0.0,VALID,98.397,VALID,-0.025,VALID,21.435,INVALID,360.0,VALID,0.0,
2018-05-09, 00:45:07,VALID,917.466,VALID,0.0,VALID,98.41,VALID,-0.017,VALID,21.399,INVALID,360.0,VALID,0.0,
2018-05-09, 00:46:07,VALID,917.432,VALID,0.0,VALID,98.451,VALID,-0.019,VALID,21.39,INVALID,360.0,VALID,0.0,
2018-05-09, 00:47:07,VALID,917.407,VALID,0.0,VALID,98.523,VALID,-0.022,VALID,21.407,INVALID,360.0,VALID,0.0,
2018-05-09, 00:48:07,VALID,917.394,VALID,0.0,VALID,98.527,VALID,0.004,VALID,21.387,INVALID,360.0,VALID,0.0,
2018-05-09, 00:49:07,VALID,917.376,VALID,0.0,VALID,98.575,VALID,0.001,VALID,21.409,INVALID,360.0,VALID,0.0,
2018-05-09, 00:50:07,VALID,917.362,VALID,0.0,VALID,98.61,VALID,0.008,VALID,21.418,INVALID,360.0,VALID,0.0,
2018-05-09, 00:51:07,VALID,917.36,VALID,0.0,VALID,98.616,VALID,0.003,VALID,21.399,INVALID,360.0,VALID,0.0,
2018-05-09, 00:52:07,VALID,917.36,VALID,0.0,VALID,98.643,VALID,0.018,VALID,21.39,INVALID,360.0,VALID,0.0,
2018-05-09, 00:53:07,VALID,917.385,VALID,0.0,VALID,98.669,VALID,0.007,VALID,21.405,INVALID,360.0,VALID,0.0,
2018-05-09, 00:54:07,VALID,917.41,VALID,0.0,VALID,98.712,VALID,0.02,VALID,21.412,INVALID,360.0,VALID,0.0,
2018-05-09, 00:55:07,VALID,917.434,VALID,0.0,VALID,98.706,VALID,-0.001,VALID,21.421,INVALID,360.0,VALID,0.0,
2018-05-09, 00:56:06,VALID,917.451,VALID,0.0,VALID,98.728,VALID,0.005,VALID,21.422,INVALID,360.0,VALID,0.0,
2018-05-09, 00:57:06,VALID,917.452,VALID,0.0,VALID,98.736,VALID,-0.002,VALID,21.412,INVALID,360.0,VALID,0.0,
2018-05-09, 00:58:06,VALID,917.446,VALID,0.0,VALID,98.726,VALID,0.008,VALID,21.384,INVALID,360.0,VALID,0.0,
2018-05-09, 00:59:06,VALID,917.43,VALID,0.0,VALID,98.71,VALID,0.002,VALID,21.336,VALID,118.0,VALID,0.0,
2018-05-09, 01:00:06,VALID,917.421,VALID,0.0,VALID,98.724,VALID,-0.006,VALID,21.317,VALID,113.0,VALID,0.0,
2018-05-09, 01:01:06,VALID,917.387,VALID,0.0,VALID,98.726,VALID,0.002,VALID,21.317,VALID,142.0,VALID,0.0,
2018-05-09, 01:02:06,VALID,917.365,VALID,0.0,VALID,98.762,VALID,0.01,VALID,21.306,INVALID,360.0,VALID,0.0,
2018-05-09, 01:03:06,VALID,917.365,VALID,0.0,VALID,98.697,VALID,-0.014,VALID,21.219,VALID,116.0,VALID,0.0,
2018-05-09, 01:04:06,VALID,917.329,VALID,0.0,VALID,98.655,VALID,-0.013,VALID,21.163,VALID,126.0,VALID,0.0,
2018-05-09, 01:05:06,VALID,917.315,VALID,0.0,VALID,98.701,VALID,-0.021,VALID,21.168,VALID,131.0,VALID,0.0,
2018-05-09, 01:06:06,VALID,917.274,VALID,0.0,VALID,98.691,VALID,-0.031,VALID,21.155,VALID,117.0,VALID,0.0,
2018-05-09, 01:07:06,VALID,917.263,VALID,0.0,VALID,98.708,VALID,-0.005,VALID,21.151,VALID,115.0,VALID,0.0,
2018-05-09, 01:08:06,VALID,917.247,VALID,0.0,VALID,98.587,VALID,-0.014,VALID,21.014,VALID,114.0,VALID,0.0,
2018-05-09, 01:09:06,VALID,917.234,VALID,0.0,VALID,98.395,VALID,-0.016,VALID,20.953,VALID,105.0,VALID,0.0,
2018-05-09, 01:10:06,VALID,917.209,VALID,0.0,VALID,98.014,VALID,-0.022,VALID,20.975,VALID,100.0,VALID,0.0,
2018-05-09, 01:11:06,VALID,917.214,VALID,0.0,VALID,97.282,VALID,-0.046,VALID,20.985,VALID,101.0,VALID,0.0,
2018-05-09, 01:12:06,VALID,917.21,VALID,0.0,VALID,96.376,VALID,-0.03,VALID,21.049,VALID,93.0,VALID,0.0,
2018-05-09, 01:13:06,VALID,917.212,VALID,0.0,VALID,95.052,VALID,-0.038,VALID,21.171,VALID,93.0,VALID,0.0,
2018-05-09, 01:14:06,VALID,917.218,VALID,0.0,VALID,94.046,VALID,-0.023,VALID,21.288,VALID,94.0,VALID,0.0,
2018-05-09, 01:15:06,VALID,917.204,VALID,0.0,VALID,93.236,VALID,-0.033,VALID,21.325,VALID,88.0,VALID,0.0,
2018-05-09, 01:16:06,VALID,917.178,VALID,0.0,VALID,92.774,VALID,-0.024,VALID,21.382,VALID,85.0,VALID,0.0,
2018-05-09, 01:17:06,VALID,917.162,VALID,0.0,VALID,92.726,VALID,-0.023,VALID,21.362,VALID,97.0,VALID,0.0,
2018-05-09, 01:18:06,VALID,917.137,VALID,0.0,VALID,92.749,VALID,-0.011,VALID,21.327,VALID,93.0,VALID,0.0,
2018-05-09, 01:19:06,VALID,917.106,VALID,0.0,VALID,92.804,VALID,-0.011,VALID,21.323,VALID,98.0,VALID,0.0,
2018-05-09, 01:20:06,VALID,917.091,VALID,0.0,VALID,92.563,VALID,-0.004,VALID,21.368,VALID,93.0,VALID,0.0,
2018-05-09, 01:21:06,VALID,917.089,VALID,0.0,VALID,92.514,VALID,-0.011,VALID,21.377,VALID,97.0,VALID,0.0,
2018-05-09, 01:22:06,VALID,917.086,VALID,0.0,VALID,92.307,VALID,-0.015,VALID,21.415,VALID,81.0,VALID,0.863,
2018-05-09, 01:23:06,VALID,917.069,VALID,0.0,VALID,92.532,VALID,0.007,VALID,21.366,VALID,85.0,VALID,2.089,
2018-05-09, 01:24:06,VALID,917.07,VALID,0.0,VALID,92.817,VALID,0.003,VALID,21.315,VALID,94.0,VALID,2.65,
2018-05-09, 01:25:06,VALID,917.059,VALID,0.0,VALID,92.473,VALID,0.001,VALID,21.381,VALID,87.0,VALID,2.398,
2018-05-09, 01:26:06,VALID,917.043,VALID,0.0,VALID,92.069,VALID,-0.009,VALID,21.444,VALID,94.0,VALID,2.494,
2018-05-09, 01:27:06,VALID,917.029,VALID,0.0,VALID,91.763,VALID,-0.005,VALID,21.514,VALID,90.0,VALID,1.995,
2018-05-09, 01:28:06,VALID,917.019,VALID,0.0,VALID,91.809,VALID,-0.004,VALID,21.482,VALID,87.0,VALID,2.076,
2018-05-09, 01:29:06,VALID,917.01,VALID,0.0,VALID,92.032,VALID,0.001,VALID,21.43,VALID,89.0,VALID,1.853,
2018-05-09, 01:30:06,VALID,917.025,VALID,0.0,VALID,92.309,VALID,0.011,VALID,21.378,VALID,96.0,VALID,1.695,
2018-05-09, 01:31:06,VALID,917.019,VALID,0.0,VALID,92.28,VALID,0.011,VALID,21.376,VALID,98.0,VALID,1.502,
2018-05-09, 01:32:06,VALID,917.023,VALID,0.0,VALID,92.365,VALID,0.011,VALID,21.36,VALID,90.0,VALID,1.454,
2018-05-09, 01:33:06,VALID,917.03,VALID,0.0,VALID,92.57,VALID,-0.012,VALID,21.32,VALID,88.0,VALID,1.47,
2018-05-09, 01:34:06,VALID,917.04,VALID,0.0,VALID,92.606,VALID,-0.003,VALID,21.296,VALID,84.0,VALID,1.29,
2018-05-09, 01:35:06,VALID,917.049,VALID,0.0,VALID,92.757,VALID,-0.002,VALID,21.251,VALID,69.0,VALID,1.222,
2018-05-09, 01:36:06,VALID,917.042,VALID,0.0,VALID,93.158,VALID,0.004,VALID,21.186,VALID,68.0,VALID,1.435,
2018-05-09, 01:37:06,VALID,917.023,VALID,0.0,VALID,93.542,VALID,-0.001,VALID,21.137,VALID,77.0,VALID,1.447,
2018-05-09, 01:38:06,VALID,917.001,VALID,0.0,VALID,93.583,VALID,0.011,VALID,21.104,VALID,84.0,VALID,1.347,
2018-05-09, 01:39:06,VALID,916.966,VALID,0.0,VALID,93.554,VALID,0.005,VALID,21.045,VALID,77.0,VALID,1.38,
2018-05-09, 01:40:06,VALID,916.956,VALID,0.0,VALID,93.824,VALID,-0.005,VALID,21.011,VALID,67.0,VALID,1.267,
2018-05-09, 01:41:06,VALID,916.952,VALID,0.0,VALID,93.962,VALID,-0.021,VALID,21.01,VALID,73.0,VALID,1.198,
2018-05-09, 01:42:06,VALID,916.952,VALID,0.0,VALID,93.973,VALID,-0.013,VALID,21.032,VALID,75.0,VALID,1.126,
2018-05-09, 01:43:06,VALID,916.968,VALID,0.0,VALID,93.759,VALID,-0.008,VALID,21.038,VALID,74.0,VALID,1.364,
2018-05-09, 01:44:06,VALID,916.968,VALID,0.0,VALID,93.817,VALID,0.008,VALID,21.041,VALID,83.0,VALID,1.17,
2018-05-09, 01:45:06,VALID,916.971,VALID,0.0,VALID,93.713,VALID,0.014,VALID,21.06,VALID,90.0,VALID,1.134,
2018-05-09, 01:46:06,VALID,916.959,VALID,0.0,VALID,93.344,VALID,0.007,VALID,21.062,VALID,89.0,VALID,0.919,
2018-05-09, 01:47:06,VALID,916.94,VALID,0.0,VALID,93.438,VALID,0.025,VALID,21.033,VALID,79.0,VALID,0.925,
2018-05-09, 01:48:06,VALID,916.909,VALID,0.0,VALID,93.788,VALID,0.004,VALID,21.031,VALID,88.0,VALID,0.8,
2018-05-09, 01:49:06,VALID,916.897,VALID,0.0,VALID,93.785,VALID,0.007,VALID,21.074,VALID,91.0,VALID,1.026,
2018-05-09, 01:50:06,VALID,916.883,VALID,0.0,VALID,93.502,VALID,-0.027,VALID,21.113,VALID,110.0,VALID,1.386,
2018-05-09, 01:51:06,VALID,916.876,VALID,0.0,VALID,93.444,VALID,-0.008,VALID,21.159,VALID,119.0,VALID,1.419,
2018-05-09, 01:52:06,VALID,916.909,VALID,0.0,VALID,92.989,VALID,-0.011,VALID,21.197,VALID,97.0,VALID,1.577,
2018-05-09, 01:53:06,VALID,916.916,VALID,0.0,VALID,92.509,VALID,0.005,VALID,21.127,VALID,100.0,VALID,1.154,
2018-05-09, 01:54:06,VALID,916.911,VALID,0.0,VALID,93.092,VALID,0.001,VALID,21.079,VALID,100.0,VALID,0.634,
2018-05-09, 01:55:06,VALID,916.921,VALID,0.0,VALID,93.211,VALID,-0.005,VALID,21.08,VALID,100.0,VALID,0.239,
2018-05-09, 01:56:06,VALID,916.94,VALID,0.0,VALID,93.192,VALID,-0.01,VALID,21.056,VALID,103.0,VALID,0.53,
2018-05-09, 01:57:06,VALID,916.943,VALID,0.0,VALID,93.159,VALID,-0.003,VALID,21.004,VALID,102.0,VALID,0.514,
2018-05-09, 01:58:06,VALID,916.938,VALID,0.0,VALID,93.659,VALID,0.002,VALID,20.956,VALID,118.0,VALID,0.628,
2018-05-09, 01:59:06,VALID,916.928,VALID,0.0,VALID,94.365,VALID,-0.005,VALID,20.938,VALID,120.0,VALID,0.284,
2018-05-09, 02:00:06,VALID,916.901,VALID,0.0,VALID,94.794,VALID,-0.006,VALID,20.956,VALID,113.0,VALID,0.029,
2018-05-09, 02:01:06,VALID,916.887,VALID,0.0,VALID,94.524,VALID,-0.001,VALID,20.972,VALID,113.0,VALID,0.0,
2018-05-09, 02:02:06,VALID,916.919,VALID,0.0,VALID,93.697,VALID,-0.001,VALID,20.929,VALID,113.0,VALID,0.0,
2018-05-09, 02:03:06,VALID,916.941,VALID,0.0,VALID,93.472,VALID,-0.001,VALID,20.831,VALID,90.0,VALID,0.094,
2018-05-09, 02:04:06,VALID,916.954,VALID,0.0,VALID,93.856,VALID,-0.002,VALID,20.723,VALID,63.0,VALID,0.422,
2018-05-09, 02:05:06,VALID,916.946,VALID,0.0,VALID,95.046,VALID,-0.014,VALID,20.701,VALID,47.0,VALID,0.048,
2018-05-09, 02:06:06,VALID,916.964,VALID,0.0,VALID,95.1,VALID,-0.001,VALID,20.7,VALID,332.0,VALID,0.405,
2018-05-09, 02:07:06,VALID,917.007,VALID,0.0,VALID,95.208,VALID,0.007,VALID,20.746,VALID,344.0,VALID,0.229,
2018-05-09, 02:08:06,VALID,917.008,VALID,0.0,VALID,94.935,VALID,-0.005,VALID,20.795,VALID,350.0,VALID,0.454,
2018-05-09, 02:09:06,VALID,917.014,VALID,0.0,VALID,94.554,VALID,-0.009,VALID,20.778,VALID,2.0,VALID,0.232,
2018-05-09, 02:10:06,VALID,916.992,VALID,0.0,VALID,94.747,VALID,0.003,VALID,20.723,VALID,34.0,VALID,0.095,
2018-05-09, 02:11:06,VALID,916.954,VALID,0.0,VALID,95.045,VALID,-0.008,VALID,20.689,VALID,344.0,VALID,0.684,
2018-05-09, 02:12:06,VALID,916.959,VALID,0.0,VALID,95.183,VALID,0.006,VALID,20.671,VALID,344.0,VALID,0.808,
2018-05-09, 02:13:06,VALID,916.95,VALID,0.0,VALID,95.695,VALID,-0.001,VALID,20.659,VALID,14.0,VALID,0.504,
2018-05-09, 02:14:06,VALID,916.947,VALID,0.0,VALID,95.783,VALID,0.007,VALID,20.615,VALID,66.0,VALID,0.077,
2018-05-09, 02:15:06,VALID,916.943,VALID,0.0,VALID,95.012,VALID,0.012,VALID,20.464,VALID,126.0,VALID,1.122,
2018-05-09, 02:16:06,VALID,916.926,VALID,0.0,VALID,94.947,VALID,0.01,VALID,20.352,VALID,111.0,VALID,0.29,
2018-05-09, 02:17:06,VALID,916.909,VALID,0.0,VALID,95.745,VALID,-0.007,VALID,20.371,VALID,65.0,VALID,0.038,
2018-05-09, 02:18:06,VALID,916.909,VALID,0.0,VALID,95.97,VALID,0.031,VALID,20.395,VALID,127.0,VALID,0.366,
2018-05-09, 02:19:06,VALID,916.92,VALID,0.0,VALID,95.869,VALID,0.059,VALID,20.346,VALID,116.0,VALID,0.663,
2018-05-09, 02:20:06,VALID,916.919,VALID,0.0,VALID,95.694,VALID,0.037,VALID,20.284,VALID,112.0,VALID,0.462,
2018-05-09, 02:21:06,VALID,916.916,VALID,0.0,VALID,96.676,VALID,0.055,VALID,20.343,VALID,128.0,VALID,0.983,
2018-05-09, 02:22:06,VALID,916.925,VALID,0.0,VALID,97.379,VALID,0.064,VALID,20.392,VALID,123.0,VALID,0.711,
2018-05-09, 02:23:06,VALID,916.921,VALID,0.0,VALID,97.628,VALID,0.055,VALID,20.368,VALID,113.0,VALID,0.772,
2018-05-09, 02:24:06,VALID,916.962,VALID,0.0,VALID,97.78,VALID,0.06,VALID,20.331,VALID,93.0,VALID,1.013,
2018-05-09, 02:25:06,VALID,916.969,VALID,0.0,VALID,97.792,VALID,0.049,VALID,20.263,VALID,92.0,VALID,1.093,
2018-05-09, 02:26:06,VALID,916.984,VALID,0.0,VALID,98.156,VALID,0.048,VALID,20.327,VALID,82.0,VALID,1.273,
2018-05-09, 02:27:06,VALID,916.997,VALID,0.0,VALID,98.216,VALID,0.064,VALID,20.349,VALID,83.0,VALID,1.678,
2018-05-09, 02:28:06,VALID,916.987,VALID,0.0,VALID,98.035,VALID,0.038,VALID,20.348,VALID,87.0,VALID,1.243,
2018-05-09, 02:29:06,VALID,916.972,VALID,0.0,VALID,97.487,VALID,0.026,VALID,20.284,VALID,52.0,VALID,1.159,
2018-05-09, 02:30:06,VALID,916.954,VALID,0.0,VALID,97.523,VALID,0.053,VALID,20.364,VALID,75.0,VALID,1.285,
2018-05-09, 02:31:06,VALID,916.929,VALID,0.0,VALID,97.592,VALID,0.035,VALID,20.447,VALID,87.0,VALID,1.38,
2018-05-09, 02:32:06,VALID,916.9,VALID,0.0,VALID,97.36,VALID,0.04,VALID,20.505,VALID,86.0,VALID,1.32,
2018-05-09, 02:33:06,VALID,916.898,VALID,0.0,VALID,96.631,VALID,-0.004,VALID,20.487,VALID,48.0,VALID,1.185,
2018-05-09, 02:34:06,VALID,916.861,VALID,0.0,VALID,96.541,VALID,-0.012,VALID,20.551,VALID,54.0,VALID,1.459,
2018-05-09, 02:35:06,VALID,916.866,VALID,0.0,VALID,96.322,VALID,-0.006,VALID,20.641,VALID,76.0,VALID,1.433,
2018-05-09, 02:36:06,VALID,916.887,VALID,0.0,VALID,95.68,VALID,-0.014,VALID,20.734,VALID,86.0,VALID,1.626,
2018-05-09, 02:37:06,VALID,916.896,VALID,0.0,VALID,95.023,VALID,-0.02,VALID,20.819,VALID,84.0,VALID,1.294,
2018-05-09, 02:38:06,VALID,916.89,VALID,0.0,VALID,94.337,VALID,-0.01,VALID,20.824,VALID,73.0,VALID,0.656,
2018-05-09, 02:39:06,VALID,916.914,VALID,0.0,VALID,94.437,VALID,-0.022,VALID,20.813,VALID,81.0,VALID,0.176,
2018-05-09, 02:40:06,VALID,916.941,VALID,0.0,VALID,94.655,VALID,-0.022,VALID,20.818,VALID,82.0,VALID,0.0,
2018-05-09, 02:41:06,VALID,917.002,VALID,0.0,VALID,94.973,VALID,-0.015,VALID,20.828,VALID,86.0,VALID,0.0,
2018-05-09, 02:42:06,VALID,917.013,VALID,0.0,VALID,95.153,VALID,-0.005,VALID,20.833,VALID,97.0,VALID,0.194,
2018-05-09, 02:43:06,VALID,917.026,VALID,0.0,VALID,95.384,VALID,0.002,VALID,20.82,VALID,79.0,VALID,0.479,
2018-05-09, 02:44:06,VALID,917.019,VALID,0.0,VALID,95.566,VALID,0.009,VALID,20.799,VALID,94.0,VALID,0.778,
2018-05-09, 02:45:06,VALID,917.006,VALID,0.0,VALID,95.736,VALID,-0.004,VALID,20.779,VALID,103.0,VALID,1.131,
2018-05-09, 02:46:06,VALID,916.991,VALID,0.0,VALID,95.902,VALID,-0.007,VALID,20.734,VALID,114.0,VALID,1.107,
2018-05-09, 02:47:06,VALID,916.967,VALID,0.0,VALID,95.934,VALID,-0.017,VALID,20.679,VALID,119.0,VALID,0.741,
2018-05-09, 02:48:06,VALID,916.931,VALID,0.0,VALID,96.029,VALID,0.006,VALID,20.642,VALID,103.0,VALID,0.682,
2018-05-09, 02:49:06,VALID,916.899,VALID,0.0,VALID,95.94,VALID,0.016,VALID,20.584,VALID,97.0,VALID,0.67,
2018-05-09, 02:50:06,VALID,916.88,VALID,0.0,VALID,96.119,VALID,-0.003,VALID,20.57,VALID,76.0,VALID,0.995,
2018-05-09, 02:51:06,VALID,916.871,VALID,0.0,VALID,95.959,VALID,0.012,VALID,20.571,VALID,73.0,VALID,1.272,
2018-05-09, 02:52:06,VALID,916.856,VALID,0.0,VALID,95.671,VALID,0.008,VALID,20.636,VALID,81.0,VALID,1.395,
2018-05-09, 02:53:06,VALID,916.845,VALID,0.0,VALID,95.107,VALID,-0.015,VALID,20.757,VALID,85.0,VALID,1.525,
2018-05-09, 02:54:06,VALID,916.828,VALID,0.0,VALID,94.054,VALID,-0.007,VALID,20.906,VALID,90.0,VALID,1.125,
2018-05-09, 02:55:06,VALID,916.824,VALID,0.0,VALID,93.516,VALID,-0.001,VALID,20.94,VALID,98.0,VALID,0.96,
2018-05-09, 02:56:06,VALID,916.825,VALID,0.0,VALID,93.384,VALID,0.006,VALID,20.912,VALID,76.0,VALID,0.846,
2018-05-09, 02:57:06,VALID,916.818,VALID,0.0,VALID,93.558,VALID,-0.002,VALID,20.893,VALID,69.0,VALID,0.713,
2018-05-09, 02:58:06,VALID,916.8,VALID,0.0,VALID,93.579,VALID,-0.003,VALID,20.904,VALID,68.0,VALID,0.052,
2018-05-09, 02:59:06,VALID,916.798,VALID,0.0,VALID,93.287,VALID,0.001,VALID,20.941,VALID,100.0,VALID,0.703,
2018-05-09, 03:00:06,VALID,916.774,VALID,0.0,VALID,93.348,VALID,0.003,VALID,20.946,VALID,90.0,VALID,1.563,
2018-05-09, 03:01:06,VALID,916.737,VALID,0.0,VALID,93.011,VALID,0.013,VALID,20.932,VALID,97.0,VALID,0.426,
2018-05-09, 03:02:06,VALID,916.734,VALID,0.0,VALID,93.142,VALID,0.008,VALID,20.872,VALID,102.0,VALID,0.781,
2018-05-09, 03:03:06,VALID,916.721,VALID,0.0,VALID,93.387,VALID,-0.018,VALID,20.856,VALID,88.0,VALID,1.171,
2018-05-09, 03:04:06,VALID,916.706,VALID,0.0,VALID,92.811,VALID,-0.029,VALID,20.932,VALID,117.0,VALID,1.144,
2018-05-09, 03:05:06,VALID,916.707,VALID,0.0,VALID,93.716,VALID,-0.027,VALID,20.913,VALID,116.0,VALID,1.07,
2018-05-09, 03:06:06,VALID,916.724,VALID,0.0,VALID,93.877,VALID,-0.005,VALID,20.825,VALID,112.0,VALID,2.135,
2018-05-09, 03:07:06,VALID,916.714,VALID,0.0,VALID,93.417,VALID,-0.026,VALID,20.927,VALID,122.0,VALID,1.627,
2018-05-09, 03:08:06,VALID,916.7,VALID,0.0,VALID,93.467,VALID,-0.013,VALID,20.954,VALID,108.0,VALID,1.827,
2018-05-09, 03:09:06,VALID,916.706,VALID,0.0,VALID,92.778,VALID,0.007,VALID,21.041,VALID,107.0,VALID,2.674,
2018-05-09, 03:10:06,VALID,916.691,VALID,0.0,VALID,92.306,VALID,-0.008,VALID,21.151,VALID,132.0,VALID,1.302,
2018-05-09, 03:11:06,VALID,916.679,VALID,0.0,VALID,92.753,VALID,-0.004,VALID,21.115,VALID,127.0,VALID,1.624,
2018-05-09, 03:12:06,VALID,916.655,VALID,0.0,VALID,93.067,VALID,-0.004,VALID,21.04,VALID,125.0,VALID,2.104,
2018-05-09, 03:13:06,VALID,916.673,VALID,0.0,VALID,92.872,VALID,-0.004,VALID,21.041,VALID,108.0,VALID,1.728,
2018-05-09, 03:14:06,VALID,916.676,VALID,0.0,VALID,92.605,VALID,-0.007,VALID,21.06,VALID,111.0,VALID,1.303,
2018-05-09, 03:15:06,VALID,916.683,VALID,0.0,VALID,92.169,VALID,-0.018,VALID,21.083,VALID,114.0,VALID,2.611,
2018-05-09, 03:16:06,VALID,916.691,VALID,0.0,VALID,90.993,VALID,-0.003,VALID,21.273,VALID,111.0,VALID,1.22,
2018-05-09, 03:17:06,VALID,916.698,VALID,0.0,VALID,90.277,VALID,-0.028,VALID,21.385,VALID,120.0,VALID,1.176,
2018-05-09, 03:18:06,VALID,916.707,VALID,0.0,VALID,89.989,VALID,0.02,VALID,21.448,VALID,158.0,VALID,0.616,
2018-05-09, 03:19:06,VALID,916.731,VALID,0.0,VALID,89.7,VALID,-0.007,VALID,21.47,VALID,96.0,VALID,0.952,
2018-05-09, 03:20:06,VALID,916.733,VALID,0.0,VALID,89.702,VALID,0.018,VALID,21.487,VALID,113.0,VALID,0.656,
2018-05-09, 03:21:06,VALID,916.734,VALID,0.0,VALID,89.888,VALID,0.027,VALID,21.482,VALID,134.0,VALID,0.78,
2018-05-09, 03:22:06,VALID,916.727,VALID,0.0,VALID,89.785,VALID,0.011,VALID,21.477,VALID,118.0,VALID,1.304,
2018-05-09, 03:23:06,VALID,916.72,VALID,0.0,VALID,89.736,VALID,0.026,VALID,21.459,VALID,98.0,VALID,1.452,
2018-05-09, 03:24:06,VALID,916.697,VALID,0.0,VALID,89.169,VALID,0.02,VALID,21.578,VALID,122.0,VALID,1.993,
2018-05-09, 03:25:06,VALID,916.697,VALID,0.0,VALID,88.279,VALID,0.028,VALID,21.737,VALID,156.0,VALID,0.667,
2018-05-09, 03:26:06,VALID,916.671,VALID,0.0,VALID,87.629,VALID,0.026,VALID,21.812,VALID,97.0,VALID,2.0,
2018-05-09, 03:27:06,VALID,916.678,VALID,0.0,VALID,86.759,VALID,0.035,VALID,21.983,VALID,117.0,VALID,0.445,
2018-05-09, 03:28:06,VALID,916.68,VALID,0.0,VALID,86.631,VALID,0.038,VALID,22.006,VALID,105.0,VALID,1.121,
2018-05-09, 03:29:06,VALID,916.667,VALID,0.0,VALID,86.73,VALID,0.028,VALID,21.963,VALID,105.0,VALID,1.869,
2018-05-09, 03:30:06,VALID,916.643,VALID,0.0,VALID,87.13,VALID,0.016,VALID,21.895,VALID,117.0,VALID,1.466,
2018-05-09, 03:31:06,VALID,916.631,VALID,0.0,VALID,87.113,VALID,0.021,VALID,21.881,VALID,74.0,VALID,1.615,
2018-05-09, 03:32:06,VALID,916.618,VALID,0.0,VALID,87.141,VALID,0.029,VALID,21.888,VALID,115.0,VALID,1.022,
2018-05-09, 03:33:06,VALID,916.624,VALID,0.0,VALID,87.191,VALID,-0.017,VALID,21.86,VALID,83.0,VALID,0.526,
2018-05-09, 03:34:06,VALID,916.607,VALID,0.0,VALID,87.819,VALID,-0.008,VALID,21.747,VALID,99.0,VALID,0.849,
2018-05-09, 03:35:06,VALID,916.599,VALID,0.0,VALID,88.192,VALID,-0.018,VALID,21.632,VALID,119.0,VALID,0.814,
2018-05-09, 03:36:06,VALID,916.591,VALID,0.0,VALID,88.361,VALID,-0.02,VALID,21.612,VALID,102.0,VALID,1.186,
2018-05-09, 03:37:06,VALID,916.595,VALID,0.0,VALID,88.174,VALID,-0.019,VALID,21.66,VALID,88.0,VALID,1.786,
2018-05-09, 03:38:06,VALID,916.582,VALID,0.0,VALID,87.514,VALID,-0.018,VALID,21.716,VALID,100.0,VALID,2.01,
2018-05-09, 03:39:06,VALID,916.563,VALID,0.0,VALID,87.327,VALID,-0.028,VALID,21.798,VALID,103.0,VALID,1.603,